Location: ??
(35.3149°N, 139.6204°E)
Time: 10:56:09
(UTC+00:00)

Cosmos 1844 Rocket - Pass Details

Date: 03 August 2024
Orbit: 823 x 845 km, 71.0° (Epoch: 07 September)

Event Time Altitude Azimuth Distance (km) Brightness Sun altitude
Rises 18:03:45 0° 321° (NW) 3,393 5.9 -19.9°
Reaches altitude 10° 18:06:45 10° 306° (NW) 2,458 5.0 -19.4°
Enters shadow 18:09:13 19° 282° (WNW) 1,926 4.2 -19.0°
